Year,Month,Day,Hour,Minute,Value (Times are PST for temperature in C)
2023,10,06,00,00,16.10
2023,10,06,00,01,16.10
2023,10,06,00,02,16.10
2023,10,06,00,03,16.10
2023,10,06,00,04,16.00
2023,10,06,00,05,16.00
2023,10,06,00,06,15.90
2023,10,06,00,07,15.90
2023,10,06,00,08,15.90
2023,10,06,00,09,15.80
2023,10,06,00,10,15.80
2023,10,06,00,11,15.80
2023,10,06,00,12,15.80
2023,10,06,00,13,15.80
2023,10,06,00,14,15.80
2023,10,06,00,15,15.80
2023,10,06,00,16,15.80
2023,10,06,00,17,15.70
2023,10,06,00,18,15.70
2023,10,06,00,19,15.70
2023,10,06,00,20,15.60
2023,10,06,00,21,15.60
2023,10,06,00,22,15.60
2023,10,06,00,23,15.50
2023,10,06,00,24,15.50
2023,10,06,00,25,15.50
2023,10,06,00,26,15.50
2023,10,06,00,27,15.50
2023,10,06,00,28,15.40
2023,10,06,00,29,15.40
2023,10,06,00,30,15.40
2023,10,06,00,31,15.40
2023,10,06,00,32,15.40
2023,10,06,00,33,15.40
2023,10,06,00,34,15.30
2023,10,06,00,35,15.30
2023,10,06,00,36,15.30
2023,10,06,00,37,15.30
2023,10,06,00,38,15.30
2023,10,06,00,39,15.30
2023,10,06,00,40,15.30
2023,10,06,00,41,15.30
2023,10,06,00,42,15.30
2023,10,06,00,43,15.30
2023,10,06,00,44,15.30
2023,10,06,00,45,15.40
2023,10,06,00,46,15.40
2023,10,06,00,47,15.40
2023,10,06,00,48,15.40
2023,10,06,00,49,15.50
2023,10,06,00,50,15.40
2023,10,06,00,51,15.40
2023,10,06,00,52,15.40
2023,10,06,00,53,15.40
2023,10,06,00,54,15.40
2023,10,06,00,55,15.40
2023,10,06,00,56,15.50
2023,10,06,00,57,15.50
2023,10,06,00,58,15.50
2023,10,06,00,59,15.60
2023,10,06,01,00,15.60
2023,10,06,01,01,15.60
2023,10,06,01,02,15.60
2023,10,06,01,03,15.60
2023,10,06,01,04,15.60
2023,10,06,01,05,15.60
2023,10,06,01,06,15.60
2023,10,06,01,07,15.60
2023,10,06,01,08,15.60
2023,10,06,01,09,15.60
2023,10,06,01,10,15.50
2023,10,06,01,11,15.50
2023,10,06,01,12,15.50
2023,10,06,01,13,15.40
2023,10,06,01,14,15.40
2023,10,06,01,15,15.40
2023,10,06,01,16,15.40
2023,10,06,01,17,15.40
2023,10,06,01,18,15.40
2023,10,06,01,19,15.40
2023,10,06,01,20,15.40
2023,10,06,01,21,15.40
2023,10,06,01,22,15.40
2023,10,06,01,23,15.40
2023,10,06,01,24,15.40
2023,10,06,01,25,15.40
2023,10,06,01,26,15.40
2023,10,06,01,27,15.40
2023,10,06,01,28,15.30
2023,10,06,01,29,15.30
2023,10,06,01,30,15.30
2023,10,06,01,31,15.20
2023,10,06,01,32,15.20
2023,10,06,01,33,15.10
2023,10,06,01,34,15.10
2023,10,06,01,35,15.00
2023,10,06,01,36,15.00
2023,10,06,01,37,15.00
2023,10,06,01,38,15.00
2023,10,06,01,39,15.00
2023,10,06,01,40,15.00
2023,10,06,01,41,14.90
2023,10,06,01,42,14.90
2023,10,06,01,43,14.90
2023,10,06,01,44,14.80
2023,10,06,01,45,14.90
2023,10,06,01,46,14.90
2023,10,06,01,47,14.90
2023,10,06,01,48,14.80
2023,10,06,01,49,14.80
2023,10,06,01,50,14.80
2023,10,06,01,51,14.80
2023,10,06,01,52,14.70
2023,10,06,01,53,14.70
2023,10,06,01,54,14.70
2023,10,06,01,55,14.70
2023,10,06,01,56,14.70
2023,10,06,01,57,14.70
2023,10,06,01,58,14.70
2023,10,06,01,59,14.70
2023,10,06,02,00,14.60
2023,10,06,02,01,14.60
2023,10,06,02,02,14.60
2023,10,06,02,03,14.60
2023,10,06,02,04,14.60
2023,10,06,02,05,14.60
2023,10,06,02,06,14.60
2023,10,06,02,07,14.50
2023,10,06,02,08,14.60
2023,10,06,02,09,14.60
2023,10,06,02,10,14.60
2023,10,06,02,11,14.60
2023,10,06,02,12,14.60
2023,10,06,02,13,14.60
2023,10,06,02,14,14.60
2023,10,06,02,15,14.60
2023,10,06,02,16,14.60
2023,10,06,02,17,14.60
2023,10,06,02,18,14.60
2023,10,06,02,19,14.60
2023,10,06,02,20,14.60
2023,10,06,02,21,14.60
2023,10,06,02,22,14.50
2023,10,06,02,23,14.50
2023,10,06,02,24,14.50
2023,10,06,02,25,14.50
2023,10,06,02,26,14.50
2023,10,06,02,27,14.50
2023,10,06,02,28,14.50
2023,10,06,02,29,14.50
2023,10,06,02,30,14.60
2023,10,06,02,31,14.60
2023,10,06,02,32,14.60
2023,10,06,02,33,14.60
2023,10,06,02,34,14.70
2023,10,06,02,35,14.70
2023,10,06,02,36,14.70
2023,10,06,02,37,14.70
2023,10,06,02,38,14.70
2023,10,06,02,39,14.70
2023,10,06,02,40,14.70
2023,10,06,02,41,14.70
2023,10,06,02,42,14.70
2023,10,06,02,43,14.70
2023,10,06,02,44,14.60
2023,10,06,02,45,14.60
2023,10,06,02,46,14.60
2023,10,06,02,47,14.60
2023,10,06,02,48,14.60
2023,10,06,02,49,14.50
2023,10,06,02,50,14.50
2023,10,06,02,51,14.50
2023,10,06,02,52,14.50
2023,10,06,02,53,14.40
2023,10,06,02,54,14.40
2023,10,06,02,55,14.40
2023,10,06,02,56,14.40
2023,10,06,02,57,14.40
2023,10,06,02,58,14.40
2023,10,06,02,59,14.40
2023,10,06,03,00,14.40
2023,10,06,03,01,14.40
2023,10,06,03,02,14.40
2023,10,06,03,03,14.40
2023,10,06,03,04,14.40
2023,10,06,03,05,14.40
2023,10,06,03,06,14.40
2023,10,06,03,07,14.40
2023,10,06,03,08,14.40
2023,10,06,03,09,14.40
2023,10,06,03,10,14.40
2023,10,06,03,11,14.40
2023,10,06,03,12,14.30
2023,10,06,03,13,14.30
2023,10,06,03,14,14.30
2023,10,06,03,15,14.30
2023,10,06,03,16,14.30
2023,10,06,03,17,14.30
2023,10,06,03,18,14.30
2023,10,06,03,19,14.30
2023,10,06,03,20,14.30
2023,10,06,03,21,14.30
2023,10,06,03,22,14.30
2023,10,06,03,23,14.40
2023,10,06,03,24,14.40
2023,10,06,03,25,14.40
2023,10,06,03,26,14.40
2023,10,06,03,27,14.40
2023,10,06,03,28,14.40
2023,10,06,03,29,14.40
2023,10,06,03,30,14.40
2023,10,06,03,31,14.40
2023,10,06,03,32,14.40
2023,10,06,03,33,14.40
2023,10,06,03,34,14.40
2023,10,06,03,35,14.40
2023,10,06,03,36,14.40
2023,10,06,03,37,14.40
2023,10,06,03,38,14.50
2023,10,06,03,39,14.50
2023,10,06,03,40,14.50
2023,10,06,03,41,14.50
2023,10,06,03,42,14.50
2023,10,06,03,43,14.50
2023,10,06,03,44,14.40
2023,10,06,03,45,14.40
2023,10,06,03,46,14.40
2023,10,06,03,47,14.40
2023,10,06,03,48,14.40
2023,10,06,03,49,14.40
2023,10,06,03,50,14.40
2023,10,06,03,51,14.40
2023,10,06,03,52,14.40
2023,10,06,03,53,14.40
2023,10,06,03,54,14.30
2023,10,06,03,55,14.30
2023,10,06,03,56,14.30
2023,10,06,03,57,14.30
2023,10,06,03,58,14.30
2023,10,06,03,59,14.30
2023,10,06,04,00,14.30
2023,10,06,04,01,14.30
2023,10,06,04,02,14.30
2023,10,06,04,03,14.40
2023,10,06,04,04,14.40
2023,10,06,04,05,14.30
2023,10,06,04,06,14.30
2023,10,06,04,07,14.30
2023,10,06,04,08,14.40
2023,10,06,04,09,14.40
2023,10,06,04,10,14.40
2023,10,06,04,11,14.40
2023,10,06,04,12,14.40
2023,10,06,04,13,14.50
2023,10,06,04,14,14.50
2023,10,06,04,15,14.50
2023,10,06,04,16,14.60
2023,10,06,04,17,14.60
2023,10,06,04,18,14.60
2023,10,06,04,19,14.60
2023,10,06,04,20,14.60
2023,10,06,04,21,14.60
2023,10,06,04,22,14.60
2023,10,06,04,23,14.60
2023,10,06,04,24,14.60
2023,10,06,04,25,14.60
2023,10,06,04,26,14.50
2023,10,06,04,27,14.50
2023,10,06,04,28,14.50
2023,10,06,04,29,14.50
2023,10,06,04,30,14.40
2023,10,06,04,31,14.40
2023,10,06,04,32,14.40
2023,10,06,04,33,14.40
2023,10,06,04,34,14.40
2023,10,06,04,35,14.40
2023,10,06,04,36,14.40
2023,10,06,04,37,14.40
2023,10,06,04,38,14.40
2023,10,06,04,39,14.30
2023,10,06,04,40,14.40
2023,10,06,04,41,14.30
2023,10,06,04,42,14.30
2023,10,06,04,43,14.30
2023,10,06,04,44,14.30
2023,10,06,04,45,14.30
2023,10,06,04,46,14.30
2023,10,06,04,47,14.30
2023,10,06,04,48,14.30
2023,10,06,04,49,14.30
2023,10,06,04,50,14.30
2023,10,06,04,51,14.30
2023,10,06,04,52,14.30
2023,10,06,04,53,14.30
2023,10,06,04,54,14.30
2023,10,06,04,55,14.30
2023,10,06,04,56,14.30
2023,10,06,04,57,14.30
2023,10,06,04,58,14.30
2023,10,06,04,59,14.30
2023,10,06,05,00,14.30
2023,10,06,05,01,14.20
2023,10,06,05,02,14.20
2023,10,06,05,03,14.20
2023,10,06,05,04,14.20
2023,10,06,05,05,14.20
2023,10,06,05,06,14.20
2023,10,06,05,07,14.20
2023,10,06,05,08,14.20
2023,10,06,05,09,14.20
2023,10,06,05,10,14.20
2023,10,06,05,11,14.10
2023,10,06,05,12,14.10
2023,10,06,05,13,14.10
2023,10,06,05,14,14.10
2023,10,06,05,15,14.10
2023,10,06,05,16,14.10
2023,10,06,05,17,14.10
2023,10,06,05,18,14.10
2023,10,06,05,19,14.00
2023,10,06,05,20,14.00
2023,10,06,05,21,14.00
2023,10,06,05,22,13.90
2023,10,06,05,23,13.90
2023,10,06,05,24,13.90
2023,10,06,05,25,13.90
2023,10,06,05,26,13.90
2023,10,06,05,27,13.90
2023,10,06,05,28,14.00
2023,10,06,05,29,14.00
2023,10,06,05,30,14.10
2023,10,06,05,31,14.10
2023,10,06,05,32,14.20
2023,10,06,05,33,14.30
2023,10,06,05,34,14.30
2023,10,06,05,35,14.30
2023,10,06,05,36,14.30
2023,10,06,05,37,14.40
2023,10,06,05,38,14.30
2023,10,06,05,39,14.30
2023,10,06,05,40,14.30
2023,10,06,05,41,14.30
2023,10,06,05,42,14.20
2023,10,06,05,43,14.20
2023,10,06,05,44,14.20
2023,10,06,05,45,14.10
2023,10,06,05,46,14.10
2023,10,06,05,47,14.10
2023,10,06,05,48,14.00
2023,10,06,05,49,14.00
2023,10,06,05,50,14.00
2023,10,06,05,51,13.90
2023,10,06,05,52,13.90
2023,10,06,05,53,13.90
2023,10,06,05,54,13.90
2023,10,06,05,55,13.90
2023,10,06,05,56,13.90
2023,10,06,05,57,13.90
2023,10,06,05,58,13.90
2023,10,06,05,59,13.90
2023,10,06,06,00,13.80
2023,10,06,06,01,13.80
2023,10,06,06,02,13.80
2023,10,06,06,03,13.80
2023,10,06,06,04,13.80
2023,10,06,06,05,13.80
2023,10,06,06,06,13.70
2023,10,06,06,07,13.70
2023,10,06,06,08,13.70
2023,10,06,06,09,13.70
2023,10,06,06,10,13.70
2023,10,06,06,11,13.70
2023,10,06,06,12,13.70
2023,10,06,06,13,13.70
2023,10,06,06,14,13.60
2023,10,06,06,15,13.60
2023,10,06,06,16,13.60
2023,10,06,06,17,13.60
2023,10,06,06,18,13.60
2023,10,06,06,19,13.60
2023,10,06,06,20,13.60
2023,10,06,06,21,13.50
2023,10,06,06,22,13.50
2023,10,06,06,23,13.50
2023,10,06,06,24,13.50
2023,10,06,06,25,13.40
2023,10,06,06,26,13.40
2023,10,06,06,27,13.40
2023,10,06,06,28,13.40
2023,10,06,06,29,13.40
2023,10,06,06,30,13.40
2023,10,06,06,31,13.30
2023,10,06,06,32,13.30
2023,10,06,06,33,13.30
2023,10,06,06,34,13.30
2023,10,06,06,35,13.30
2023,10,06,06,36,13.30
2023,10,06,06,37,13.30
2023,10,06,06,38,13.30
2023,10,06,06,39,13.20
2023,10,06,06,40,13.20
2023,10,06,06,41,13.10
2023,10,06,06,42,13.10
2023,10,06,06,43,13.20
2023,10,06,06,44,13.20
2023,10,06,06,45,13.20
2023,10,06,06,46,13.20
2023,10,06,06,47,13.20
2023,10,06,06,48,13.20
2023,10,06,06,49,13.20
2023,10,06,06,50,13.20
2023,10,06,06,51,13.20
2023,10,06,06,52,13.20
2023,10,06,06,53,13.20
2023,10,06,06,54,13.20
2023,10,06,06,55,13.20
2023,10,06,06,56,13.20
2023,10,06,06,57,13.20
2023,10,06,06,58,13.20
2023,10,06,06,59,13.20
2023,10,06,07,00,13.20
2023,10,06,07,01,13.10
2023,10,06,07,02,13.10
2023,10,06,07,03,13.10
2023,10,06,07,04,13.10
2023,10,06,07,05,13.10
2023,10,06,07,06,13.10
2023,10,06,07,07,13.10
2023,10,06,07,08,13.10
2023,10,06,07,09,13.10
2023,10,06,07,10,13.20
2023,10,06,07,11,13.20
2023,10,06,07,12,13.30
2023,10,06,07,13,13.30
2023,10,06,07,14,13.30
2023,10,06,07,15,13.30
2023,10,06,07,16,13.30
2023,10,06,07,17,13.40
2023,10,06,07,18,13.40
2023,10,06,07,19,13.30
2023,10,06,07,20,13.30
2023,10,06,07,21,13.30
2023,10,06,07,22,13.30
2023,10,06,07,23,13.20
2023,10,06,07,24,13.20
2023,10,06,07,25,13.20
2023,10,06,07,26,13.20
2023,10,06,07,27,13.20
2023,10,06,07,28,13.20
2023,10,06,07,29,13.20
2023,10,06,07,30,13.10
2023,10,06,07,31,13.10
2023,10,06,07,32,13.10
2023,10,06,07,33,13.10
2023,10,06,07,34,13.00
2023,10,06,07,35,13.00
2023,10,06,07,36,13.00
2023,10,06,07,37,13.00
2023,10,06,07,38,13.00
2023,10,06,07,39,13.00
2023,10,06,07,40,13.00
2023,10,06,07,41,13.10
2023,10,06,07,42,13.10
2023,10,06,07,43,13.10
2023,10,06,07,44,13.10
2023,10,06,07,45,13.20
2023,10,06,07,46,13.20
2023,10,06,07,47,13.20
2023,10,06,07,48,13.30
2023,10,06,07,49,13.30
2023,10,06,07,50,13.30
2023,10,06,07,51,13.40
2023,10,06,07,52,13.40
2023,10,06,07,53,13.40
2023,10,06,07,54,13.40
2023,10,06,07,55,13.50
2023,10,06,07,56,13.50
2023,10,06,07,57,13.60
2023,10,06,07,58,13.60
2023,10,06,07,59,13.60
2023,10,06,08,00,13.70
2023,10,06,08,01,13.70
2023,10,06,08,02,13.80
2023,10,06,08,03,13.80
2023,10,06,08,04,13.80
2023,10,06,08,05,13.80
2023,10,06,08,06,13.80
2023,10,06,08,07,13.80
2023,10,06,08,08,13.90
2023,10,06,08,09,13.90
2023,10,06,08,10,13.90
2023,10,06,08,11,13.90
2023,10,06,08,12,14.00
2023,10,06,08,13,14.00
2023,10,06,08,14,14.10
2023,10,06,08,15,14.10
2023,10,06,08,16,14.10
2023,10,06,08,17,14.20
2023,10,06,08,18,14.20
2023,10,06,08,19,14.30
2023,10,06,08,20,14.30
2023,10,06,08,21,14.40
2023,10,06,08,22,14.50
2023,10,06,08,23,14.50
2023,10,06,08,24,14.60
2023,10,06,08,25,14.70
2023,10,06,08,26,14.80
2023,10,06,08,27,14.90
2023,10,06,08,28,15.00
2023,10,06,08,29,15.00
2023,10,06,08,30,15.00
2023,10,06,08,31,15.00
2023,10,06,08,32,15.00
2023,10,06,08,33,15.10
2023,10,06,08,34,15.20
2023,10,06,08,35,15.20
2023,10,06,08,36,15.20
2023,10,06,08,37,15.20
2023,10,06,08,38,15.30
2023,10,06,08,39,15.30
2023,10,06,08,40,15.40
2023,10,06,08,41,15.50
2023,10,06,08,42,15.60
2023,10,06,08,43,15.70
2023,10,06,08,44,15.70
2023,10,06,08,45,15.80
2023,10,06,08,46,15.80
2023,10,06,08,47,15.90
2023,10,06,08,48,15.90
2023,10,06,08,49,15.90
2023,10,06,08,50,15.90
2023,10,06,08,51,15.80
2023,10,06,08,52,15.80
2023,10,06,08,53,15.80
2023,10,06,08,54,15.80
2023,10,06,08,55,15.80
2023,10,06,08,56,15.90
2023,10,06,08,57,15.90
2023,10,06,08,58,15.90
2023,10,06,08,59,15.90
2023,10,06,09,00,16.00
2023,10,06,09,01,16.00
2023,10,06,09,02,16.10
2023,10,06,09,03,16.10
2023,10,06,09,04,16.20
2023,10,06,09,05,16.20
2023,10,06,09,06,16.20
2023,10,06,09,07,16.30
2023,10,06,09,08,16.30
2023,10,06,09,09,16.30
2023,10,06,09,10,16.30
2023,10,06,09,11,16.20
2023,10,06,09,12,16.20
2023,10,06,09,13,16.20
2023,10,06,09,14,16.20
2023,10,06,09,15,16.20
2023,10,06,09,16,16.20
2023,10,06,09,17,16.30
2023,10,06,09,18,16.30
2023,10,06,09,19,16.40
2023,10,06,09,20,16.40
2023,10,06,09,21,16.40
2023,10,06,09,22,16.40
2023,10,06,09,23,16.40
2023,10,06,09,24,16.30
2023,10,06,09,25,16.20
2023,10,06,09,26,16.20
2023,10,06,09,27,16.20
2023,10,06,09,28,16.20
2023,10,06,09,29,16.20
2023,10,06,09,30,16.20
2023,10,06,09,31,16.20
2023,10,06,09,32,16.30
2023,10,06,09,33,16.30
2023,10,06,09,34,16.30
2023,10,06,09,35,16.30
2023,10,06,09,36,16.30
2023,10,06,09,37,16.30
2023,10,06,09,38,16.30
2023,10,06,09,39,16.30
2023,10,06,09,40,16.20
2023,10,06,09,41,16.20
2023,10,06,09,42,16.20
2023,10,06,09,43,16.20
2023,10,06,09,44,16.20
2023,10,06,09,45,16.30
2023,10,06,09,46,16.30
2023,10,06,09,47,16.40
2023,10,06,09,48,16.50
2023,10,06,09,49,16.60
2023,10,06,09,50,16.70
2023,10,06,09,51,16.70
2023,10,06,09,52,16.80
2023,10,06,09,53,16.80
2023,10,06,09,54,16.80
2023,10,06,09,55,16.90
2023,10,06,09,56,16.90
2023,10,06,09,57,16.90
2023,10,06,09,58,17.00
2023,10,06,09,59,17.00
2023,10,06,10,00,17.00
2023,10,06,10,01,16.90
2023,10,06,10,02,16.90
2023,10,06,10,03,17.00
2023,10,06,10,04,17.00
2023,10,06,10,05,17.00
2023,10,06,10,06,16.90
2023,10,06,10,07,17.00
2023,10,06,10,08,17.00
2023,10,06,10,09,17.00
2023,10,06,10,10,17.00
2023,10,06,10,11,17.00
2023,10,06,10,12,17.00
2023,10,06,10,13,17.00
2023,10,06,10,14,17.00
2023,10,06,10,15,17.00
2023,10,06,10,16,17.00
2023,10,06,10,17,17.00
2023,10,06,10,18,17.10
2023,10,06,10,19,17.10
2023,10,06,10,20,17.20
2023,10,06,10,21,17.20
2023,10,06,10,22,17.30
2023,10,06,10,23,17.30
2023,10,06,10,24,17.40
2023,10,06,10,25,17.50
2023,10,06,10,26,17.50
2023,10,06,10,27,17.60
2023,10,06,10,28,17.70
2023,10,06,10,29,17.70
2023,10,06,10,30,17.70
2023,10,06,10,31,17.80
2023,10,06,10,32,17.80
2023,10,06,10,33,17.90
2023,10,06,10,34,17.80
2023,10,06,10,35,17.90
2023,10,06,10,36,17.90
2023,10,06,10,37,17.90
2023,10,06,10,38,17.90
2023,10,06,10,39,17.90
2023,10,06,10,40,17.90
2023,10,06,10,41,17.90
2023,10,06,10,42,17.90
2023,10,06,10,43,17.90
2023,10,06,10,44,17.90
2023,10,06,10,45,17.90
2023,10,06,10,46,17.90
2023,10,06,10,47,17.80
2023,10,06,10,48,17.80
2023,10,06,10,49,17.80
2023,10,06,10,50,17.80
2023,10,06,10,51,17.80
2023,10,06,10,52,17.80
2023,10,06,10,53,17.70
2023,10,06,10,54,17.70
2023,10,06,10,55,17.70
2023,10,06,10,56,17.70
2023,10,06,10,57,17.70
2023,10,06,10,58,17.70
2023,10,06,10,59,17.70
2023,10,06,11,00,17.80
2023,10,06,11,01,17.80
2023,10,06,11,02,17.80
2023,10,06,11,03,17.80
2023,10,06,11,04,17.80
2023,10,06,11,05,17.80
2023,10,06,11,06,17.80
2023,10,06,11,07,17.80
2023,10,06,11,08,17.80
2023,10,06,11,09,17.80
2023,10,06,11,10,17.80
2023,10,06,11,11,17.80
2023,10,06,11,12,17.80
2023,10,06,11,13,17.80
2023,10,06,11,14,17.70
2023,10,06,11,15,17.60
2023,10,06,11,16,17.60
2023,10,06,11,17,17.60
2023,10,06,11,18,17.60
2023,10,06,11,19,17.60
2023,10,06,11,20,17.70
2023,10,06,11,21,17.70
2023,10,06,11,22,17.60
2023,10,06,11,23,17.60
2023,10,06,11,24,17.60
2023,10,06,11,25,17.50
2023,10,06,11,26,17.50
2023,10,06,11,27,17.50
2023,10,06,11,28,17.50
2023,10,06,11,29,17.50
2023,10,06,11,30,17.60
2023,10,06,11,31,17.60
2023,10,06,11,32,17.60
2023,10,06,11,33,17.60
2023,10,06,11,34,17.60
2023,10,06,11,35,17.60
2023,10,06,11,36,17.50
2023,10,06,11,37,17.60
2023,10,06,11,38,17.60
2023,10,06,11,39,17.60
2023,10,06,11,40,17.70
2023,10,06,11,41,17.70
2023,10,06,11,42,17.70
2023,10,06,11,43,17.70
2023,10,06,11,44,17.70
2023,10,06,11,45,17.70
2023,10,06,11,46,17.70
2023,10,06,11,47,17.70
2023,10,06,11,48,17.80
2023,10,06,11,49,17.80
2023,10,06,11,50,17.90
2023,10,06,11,51,17.90
2023,10,06,11,52,17.90
2023,10,06,11,53,17.90
2023,10,06,11,54,18.00
2023,10,06,11,55,18.00
2023,10,06,11,56,18.00
2023,10,06,11,57,18.00
2023,10,06,11,58,18.00
2023,10,06,11,59,18.00
2023,10,06,12,00,17.90
2023,10,06,12,01,17.90
2023,10,06,12,02,17.90
2023,10,06,12,03,17.90
2023,10,06,12,04,18.00
2023,10,06,12,05,18.00
2023,10,06,12,06,17.90
2023,10,06,12,07,17.90
2023,10,06,12,08,18.00
2023,10,06,12,09,18.00
2023,10,06,12,10,18.00
2023,10,06,12,11,18.00
2023,10,06,12,12,18.00
2023,10,06,12,13,18.00
2023,10,06,12,14,18.10
2023,10,06,12,15,18.10
2023,10,06,12,16,18.10
2023,10,06,12,17,18.10
2023,10,06,12,18,18.10
2023,10,06,12,19,18.10
2023,10,06,12,20,18.10
2023,10,06,12,21,18.10
2023,10,06,12,22,18.10
2023,10,06,12,23,18.10
2023,10,06,12,24,18.10
2023,10,06,12,25,18.10
2023,10,06,12,26,18.10
2023,10,06,12,27,18.10
2023,10,06,12,28,18.10
2023,10,06,12,29,18.10
2023,10,06,12,30,18.10
2023,10,06,12,31,18.10
2023,10,06,12,32,18.10
2023,10,06,12,33,18.10
2023,10,06,12,34,18.10
2023,10,06,12,35,18.10
2023,10,06,12,36,18.10
2023,10,06,12,37,18.10
2023,10,06,12,38,18.10
2023,10,06,12,39,18.20
2023,10,06,12,40,18.20
2023,10,06,12,41,18.20
2023,10,06,12,42,18.20
2023,10,06,12,43,18.30
2023,10,06,12,44,18.30
2023,10,06,12,45,18.40
2023,10,06,12,46,18.40
2023,10,06,12,47,18.40
2023,10,06,12,48,18.40
2023,10,06,12,49,18.50
2023,10,06,12,50,18.50
2023,10,06,12,51,18.50
2023,10,06,12,52,18.60
2023,10,06,12,53,18.60
2023,10,06,12,54,18.60
2023,10,06,12,55,18.70
2023,10,06,12,56,18.70
2023,10,06,12,57,18.70
2023,10,06,12,58,18.70
2023,10,06,12,59,18.70
2023,10,06,13,00,18.70
2023,10,06,13,01,18.70
2023,10,06,13,02,18.70
2023,10,06,13,03,18.70
2023,10,06,13,04,18.70
2023,10,06,13,05,18.70
2023,10,06,13,06,18.70
2023,10,06,13,07,18.60
2023,10,06,13,08,18.60
2023,10,06,13,09,18.60
2023,10,06,13,10,18.60
2023,10,06,13,11,18.70
2023,10,06,13,12,18.80
2023,10,06,13,13,18.80
2023,10,06,13,14,18.80
2023,10,06,13,15,18.80
2023,10,06,13,16,18.80
2023,10,06,13,17,18.90
2023,10,06,13,18,18.90
2023,10,06,13,19,18.90
2023,10,06,13,20,19.00
2023,10,06,13,21,19.10
2023,10,06,13,22,19.20
2023,10,06,13,23,19.20
2023,10,06,13,24,19.20
2023,10,06,13,25,19.30
2023,10,06,13,26,19.30
2023,10,06,13,27,19.30
2023,10,06,13,28,19.20
2023,10,06,13,29,19.20
2023,10,06,13,30,19.20
2023,10,06,13,31,19.30
2023,10,06,13,32,19.30
2023,10,06,13,33,19.30
2023,10,06,13,34,19.30
2023,10,06,13,35,19.30
2023,10,06,13,36,19.30
2023,10,06,13,37,19.40
2023,10,06,13,38,19.40
2023,10,06,13,39,19.40
2023,10,06,13,40,19.40
2023,10,06,13,41,19.50
2023,10,06,13,42,19.40
2023,10,06,13,43,19.40
2023,10,06,13,44,19.40
2023,10,06,13,45,19.30
2023,10,06,13,46,19.30
2023,10,06,13,47,19.30
2023,10,06,13,48,19.30
2023,10,06,13,49,19.30
2023,10,06,13,50,19.30
2023,10,06,13,51,19.20
2023,10,06,13,52,19.10
2023,10,06,13,53,19.10
2023,10,06,13,54,19.00
2023,10,06,13,55,19.00
2023,10,06,13,56,18.90
2023,10,06,13,57,18.90
2023,10,06,13,58,18.90
2023,10,06,13,59,18.90
2023,10,06,14,00,18.90
2023,10,06,14,01,19.00
2023,10,06,14,02,19.10
2023,10,06,14,03,19.10
2023,10,06,14,04,19.20
2023,10,06,14,05,19.20
2023,10,06,14,06,19.30
2023,10,06,14,07,19.30
2023,10,06,14,08,19.20
2023,10,06,14,09,19.20
2023,10,06,14,10,19.20
2023,10,06,14,11,19.20
2023,10,06,14,12,19.30
2023,10,06,14,13,19.30
2023,10,06,14,14,19.30
2023,10,06,14,15,19.30
2023,10,06,14,16,19.30
2023,10,06,14,17,19.30
2023,10,06,14,18,19.30
2023,10,06,14,19,19.30
2023,10,06,14,20,19.40
2023,10,06,14,21,19.40
2023,10,06,14,22,19.50
2023,10,06,14,23,19.50
2023,10,06,14,24,19.60
2023,10,06,14,25,19.70
2023,10,06,14,26,19.70
2023,10,06,14,27,19.80
2023,10,06,14,28,19.80
2023,10,06,14,29,19.80
2023,10,06,14,30,19.90
2023,10,06,14,31,19.90
2023,10,06,14,32,20.00
2023,10,06,14,33,19.90
2023,10,06,14,34,19.90
2023,10,06,14,35,19.90
2023,10,06,14,36,19.90
2023,10,06,14,37,19.90
2023,10,06,14,38,19.90
2023,10,06,14,39,19.90
2023,10,06,14,40,19.90
2023,10,06,14,41,19.90
2023,10,06,14,42,19.90
2023,10,06,14,43,19.90
2023,10,06,14,44,19.90
2023,10,06,14,45,20.00
2023,10,06,14,46,20.00
2023,10,06,14,47,20.00
2023,10,06,14,48,20.00
2023,10,06,14,49,20.00
2023,10,06,14,50,20.00
2023,10,06,14,51,20.00
2023,10,06,14,52,20.00
2023,10,06,14,53,20.00
2023,10,06,14,54,20.00
2023,10,06,14,55,20.10
2023,10,06,14,56,20.10
2023,10,06,14,57,20.20
2023,10,06,14,58,20.20
2023,10,06,14,59,20.30
2023,10,06,15,00,20.30
2023,10,06,15,01,20.30
2023,10,06,15,02,20.30
2023,10,06,15,03,20.30
2023,10,06,15,04,20.30
2023,10,06,15,05,20.30
2023,10,06,15,06,20.30
2023,10,06,15,07,20.20
2023,10,06,15,08,20.20
2023,10,06,15,09,20.10
2023,10,06,15,10,20.10
2023,10,06,15,11,20.10
2023,10,06,15,12,20.10
2023,10,06,15,13,20.20
2023,10,06,15,14,20.20
2023,10,06,15,15,20.30
2023,10,06,15,16,20.30
2023,10,06,15,17,20.30
2023,10,06,15,18,20.30
2023,10,06,15,19,20.40
2023,10,06,15,20,20.40
2023,10,06,15,21,20.40
2023,10,06,15,22,20.40
2023,10,06,15,23,20.40
2023,10,06,15,24,20.40
2023,10,06,15,25,20.40
2023,10,06,15,26,20.40
2023,10,06,15,27,20.50
2023,10,06,15,28,20.50
2023,10,06,15,29,20.50
2023,10,06,15,30,20.50
2023,10,06,15,31,20.50
2023,10,06,15,32,20.50
2023,10,06,15,33,20.50
2023,10,06,15,34,20.40
2023,10,06,15,35,20.40
2023,10,06,15,36,20.40
2023,10,06,15,37,20.40
2023,10,06,15,38,20.40
2023,10,06,15,39,20.40
2023,10,06,15,40,20.50
2023,10,06,15,41,20.50
2023,10,06,15,42,20.50
2023,10,06,15,43,20.50
2023,10,06,15,44,20.50
2023,10,06,15,45,20.50
2023,10,06,15,46,20.50
2023,10,06,15,47,20.50
2023,10,06,15,48,20.50
2023,10,06,15,49,20.60
2023,10,06,15,50,20.60
2023,10,06,15,51,20.60
2023,10,06,15,52,20.70
2023,10,06,15,53,20.80
2023,10,06,15,54,20.80
2023,10,06,15,55,20.80
2023,10,06,15,56,20.80
2023,10,06,15,57,20.80
2023,10,06,15,58,20.90
2023,10,06,15,59,20.90
2023,10,06,16,00,20.90
2023,10,06,16,01,20.90
2023,10,06,16,02,21.00
2023,10,06,16,03,21.00
2023,10,06,16,04,21.10
2023,10,06,16,05,21.10
2023,10,06,16,06,21.10
2023,10,06,16,07,21.10
2023,10,06,16,08,21.10
2023,10,06,16,09,21.10
2023,10,06,16,10,21.20
2023,10,06,16,11,21.20
2023,10,06,16,12,21.20
2023,10,06,16,13,21.20
2023,10,06,16,14,21.10
2023,10,06,16,15,21.10
2023,10,06,16,16,21.10
2023,10,06,16,17,21.10
2023,10,06,16,18,21.10
2023,10,06,16,19,21.10
2023,10,06,16,20,21.10
2023,10,06,16,21,21.20
2023,10,06,16,22,21.20
2023,10,06,16,23,21.30
2023,10,06,16,24,21.30
2023,10,06,16,25,21.30
2023,10,06,16,26,21.30
2023,10,06,16,27,21.30
2023,10,06,16,28,21.30
2023,10,06,16,29,21.30
2023,10,06,16,30,21.30
2023,10,06,16,31,21.30
2023,10,06,16,32,21.30
2023,10,06,16,33,21.30
2023,10,06,16,34,21.30
2023,10,06,16,35,21.40
2023,10,06,16,36,21.40
2023,10,06,16,37,21.40
2023,10,06,16,38,21.40
2023,10,06,16,39,21.40
2023,10,06,16,40,21.30
2023,10,06,16,41,21.30
2023,10,06,16,42,21.30
2023,10,06,16,43,21.40
2023,10,06,16,44,21.40
2023,10,06,16,45,21.40
2023,10,06,16,46,21.50
2023,10,06,16,47,21.50
2023,10,06,16,48,21.60
2023,10,06,16,49,21.60
2023,10,06,16,50,21.60
2023,10,06,16,51,21.60
2023,10,06,16,52,21.60
2023,10,06,16,53,21.60
2023,10,06,16,54,21.60
2023,10,06,16,55,21.50
2023,10,06,16,56,21.50
2023,10,06,16,57,21.40
2023,10,06,16,58,21.40
2023,10,06,16,59,21.40
2023,10,06,17,00,21.40
2023,10,06,17,01,21.30
2023,10,06,17,02,21.30
2023,10,06,17,03,21.30
2023,10,06,17,04,21.30
2023,10,06,17,05,21.30
2023,10,06,17,06,21.30
2023,10,06,17,07,21.30
2023,10,06,17,08,21.30
2023,10,06,17,09,21.30
2023,10,06,17,10,21.30
2023,10,06,17,11,21.30
2023,10,06,17,12,21.30
2023,10,06,17,13,21.30
2023,10,06,17,14,21.40
2023,10,06,17,15,21.40
2023,10,06,17,16,21.40
2023,10,06,17,17,21.40
2023,10,06,17,18,21.40
2023,10,06,17,19,21.30